Tracking 17558 objects as of 14-February-2016
HD Live streaming from Space Station
objects crossing your sky now

SL-8 DEB

Track SL-8 DEB now!
10-day predictions


NORAD ID: 21250
Int'l Code: 1991-009BH
Perigee: 1,493.1 km
Apogee: 1,718.8 km
Inclination: 74.1 °
Period: 118.2 minutes
Semi major axis: 7976 km
RCS: 0.1024 m2 (medium)
Launch date: February 12, 1991
Source: Commonwealth of Independent States (former USSR) (CIS)
Launch site: PLESETSK MISSILE AND SPACE COMPLEX (PKMTR)

Note: This is SATELLITE DEBRIS
Your satellite tracking list
Your tracking list is empty





NASA's NSSDC Master Catalog

Two Line Element Set (TLE):
1 21250U 91009BH  16044.13835020 -.00000023  00000-0 -78412-4 0  9999
2 21250  74.0631 301.0878 0141448 280.0312 238.9849 12.1856902019443
Source of the keplerian elements: AFSPC

N2YO: 421